Stations météo

réclame
Mon MeteoGroup
Greifswald, Allemagne (10184): Température de l'air & dewpoint: 13.07.2019 21:00:00 - 19.07.2019 21:00:00 (CEST)Greifswald, Allemagne (10184): Température de l'air 5cm & Température de l'air -5cm: 13.07.2019 21:00:00 - 19.07.2019 21:00:00 (CEST)Greifswald, Allemagne (10184): Température de l'air -20cm & Température de l'air -100cm: 13.07.2019 21:00:00 - 19.07.2019 21:00:00 (CEST)Greifswald, Allemagne (10184): Vitesse du vent & gusts: 13.07.2019 21:00:00 - 19.07.2019 21:00:00 (CEST)Greifswald, Allemagne (10184): Direction du vent: 13.07.2019 21:00:00 - 19.07.2019 21:00:00 (CEST)Greifswald, Allemagne (10184): reduced air pressure: 13.07.2019 21:00:00 - 19.07.2019 21:00:00 (CEST)Greifswald, Allemagne (10184): visibility: 13.07.2019 21:00:00 - 19.07.2019 21:00:00 (CEST)Greifswald, Allemagne (10184): Ensoleillement: 13.07.2019 21:00:00 - 19.07.2019 21:00:00 (CEST)Greifswald, Allemagne (10184): Quantités de précipitations: 13.07.2019 21:00:00 - 19.07.2019 21:00:00 (CEST)
Date & Time tt [°C] td [°C] tt 5cm [°C] tt -5cm [°C] tt -20cm [°C] tt -100cm [°C] ff [km/h] ff [knt] fx [km/h] fx [knt] dd ppp [hPa] vv [km] sd [min] rr [mm]
19.07.2019 21:00:00 19,9 16,2 20,0 26,2 25,9 19,0 4 2 7 4 NE 1013,8 40 0 0,0
19.07.2019 20:00:00 21,0 15,3 21,2 27,6 25,9 19,0 6 3 15 8 NE 1013,6 45 11 0,0
19.07.2019 19:00:00 22,6 16,1 23,8 28,6 25,8 19,0 9 5 16 9 NE 1013,0 47 48 0,0
19.07.2019 18:00:00 23,1 15,6 25,2 27,7 25,8 19,0 9 5 20 11 NW 1012,8 40 15 0,0
19.07.2019 17:00:00 22,4 14,2 23,5 28,2 25,7 19,0 13 7 23 12 SW 1013,0 50 0 0,0
19.07.2019 16:00:00 23,5 14,0 25,7 28,6 25,4 19,0 17 9 27 14 W 1012,7 50 0 0,0
19.07.2019 15:00:00 23,6 12,6 26,3 28,5 25,1 19,0 10 6 23 12 SW 1012,5 50 0 0,0
19.07.2019 14:00:00 23,7 13,1 25,2 28,7 24,7 19,0 12 7 29 16 WSW 1012,4 35 1 0,0
19.07.2019 13:00:00 25,4 12,2 28,0 28,6 24,1 18,9 10 5 18 10 SSW 1012,1 55 0 0,0
19.07.2019 12:00:00 25,1 10,0 27,2 27,9 23,4 18,9 8 4 18 10 SSW 1011,9 55 14 0,0
19.07.2019 11:00:00 25,7 10,3 31,4 26,6 22,7 18,9 9 5 24 13 S 1011,9 60 44 0,0
19.07.2019 10:00:00 24,9 9,8 28,4 24,4 22,3 18,9 10 5 20 11 S 1011,8 60 60 0,0
19.07.2019 09:00:00 21,4 12,9 24,1 21,6 22,2 18,9 0 0 12 7 N 1011,9 70 18 0,0
19.07.2019 08:00:00 18,5 12,3 19,2 20,6 22,4 18,9 6 3 11 6 ESE 1011,8 52 2 0,0
19.07.2019 07:00:00 17,6 11,8 17,3 20,4 22,6 18,9 5 3 13 7 SSE 1011,6 60 0 0,0
19.07.2019 06:00:00 17,1 12,7 16,9 20,4 23,0 18,9 6 4 13 7 SE 1011,7 65 0 0,0
19.07.2019 05:00:00 16,7 13,1 15,8 20,7 23,4 18,9 8 4 15 8 SE 1011,8 60 0 0,0
19.07.2019 04:00:00 16,8 12,9 15,8 21,2 23,8 18,9 8 4 16 8 ESE 1012,0 65 0 0,0
19.07.2019 03:00:00 17,4 12,4 16,5 21,7 24,2 18,9 10 6 21 11 ESE 1012,2 70 0 0,0
19.07.2019 02:00:00 17,5 12,2 16,5 22,2 24,8 18,9 11 6 19 10 ESE 1012,4 60 0 0,0
19.07.2019 01:00:00 16,9 12,7 15,4 22,9 25,3 18,9 9 5 19 11 ESE 1012,6 60 0 0,0
19.07.2019 00:00:00 17,9 13,3 17,1 23,8 25,9 18,9 12 7 19 11 ESE 1012,5 55 0 0,0
18.07.2019 23:00:00 17,3 13,2 16,4 24,7 26,6 18,9 11 6 21 11 E 1012,5 60 0 0,0
18.07.2019 22:00:00 18,0 12,7 16,7 26,1 27,2 18,9 14 8 22 12 E 1012,5 65 0 0,0
18.07.2019 21:00:00 19,5 12,4 18,7 28,1 27,7 18,9 14 8 24 13 E 1012,3 65 14 0,0
18.07.2019 20:00:00 21,5 12,4 21,5 30,4 28,0 18,9 16 8 30 16 E 1012,3 65 60 0,0
18.07.2019 19:00:00 22,7 10,9 23,5 32,1 27,9 18,9 22 12 32 17 E 1012,2 60 60 0,0
18.07.2019 18:00:00 23,5 9,6 25,5 33,0 27,6 18,9 21 12 36 20 E 1012,2 70 45 0,0
18.07.2019 17:00:00 23,7 9,0 25,0 34,5 27,0 18,9 16 8 32 17 E 1012,3 55 48 0,0
18.07.2019 16:00:00 24,4 11,9 28,9 34,5 26,0 18,9 18 10 34 18 NE 1012,6 50 59 0,0
18.07.2019 15:00:00 24,0 12,0 28,5 33,7 25,0 18,9 16 9 31 17 ENE 1013,0 60 60 0,0
18.07.2019 14:00:00 23,1 13,5 28,5 32,2 23,8 18,9 17 9 26 14 ENE 1013,3 50 60 0,0
18.07.2019 13:00:00 22,2 12,3 27,7 29,8 22,8 18,9 13 7 25 14 ENE 1013,5 55 47 0,0
18.07.2019 12:00:00 21,8 11,3 27,2 28,3 21,8 18,9 9 5 23 13 ESE 1013,6 70 51 0,0
18.07.2019 11:00:00 21,0 10,6 23,6 25,7 20,9 18,9 5 3 13 7 ENE 1013,7 60 54 0,0
18.07.2019 10:00:00 20,5 10,5 27,1 22,8 20,3 18,9 4 2 11 6 N 1013,8 60 60 0,0
18.07.2019 09:00:00 19,3 11,3 23,7 20,2 20,1 18,9 5 3 13 7 SW 1014,0 70 60 0,0
18.07.2019 08:00:00 17,0 10,3 19,7 18,4 20,1 18,9 5 3 9 5 WSW 1013,8 53 60 0,0
18.07.2019 07:00:00 13,9 10,3 15,4 17,2 20,4 18,9 4 2 7 4 WSW 1013,8 45 60 0,0
18.07.2019 06:00:00 10,8 10,0 9,4 16,8 20,9 18,9 3 1 5 3 SW 1013,8 40 15 0,0
18.07.2019 05:00:00 9,7 9,2 8,2 17,3 21,4 18,9 2 1 3 2 S 1013,8 45 0 0,0
18.07.2019 04:00:00 10,4 10,0 9,2 18,0 21,9 18,9 0 0 4 2 N 1013,8 40 0 0,0
18.07.2019 03:00:00 10,6 10,0 9,2 18,7 22,5 18,9 0 0 3 2 N 1014,0 40 0 0,0
18.07.2019 02:00:00 11,0 10,2 9,8 19,6 23,2 18,9 0 0 5 3 N 1014,2 45 0 0,0
18.07.2019 01:00:00 11,5 10,4 10,5 20,6 23,9 18,9 0 0 3 1 N 1014,4 50 0 0,0
18.07.2019 00:00:00 12,4 11,0 10,9 21,8 24,6 18,9 2 1 4 2 WSW 1014,2 70 0 0,0
17.07.2019 23:00:00 13,5 11,5 12,3 23,2 25,2 18,9 0 0 6 3 N 1014,1 60 0 0,0
17.07.2019 22:00:00 15,0 11,8 13,7 25,1 25,9 19,0 0 0 9 5 N 1014,2 72 8 0,0
17.07.2019 21:00:00 17,8 12,0 16,5 27,4 26,2 19,0 5 3 14 7 ENE 1014,2 75 60 0,0
17.07.2019 20:00:00 19,4 12,0 20,0 29,6 26,3 19,0 7 4 15 8 NE 1013,9 75 60 0,0
17.07.2019 19:00:00 19,9 11,6 21,3 31,0 26,0 19,0 10 5 18 10 NE 1013,8 75 60 0,0
17.07.2019 18:00:00 20,3 10,6 23,1 32,0 25,5 19,0 11 6 23 12 ENE 1014,0 70 60 0,0
17.07.2019 17:00:00 21,0 12,3 24,4 32,4 24,7 19,0 11 6 24 13 NE 1014,1 60 60 0,0
17.07.2019 16:00:00 20,7 12,1 25,8 31,9 23,6 19,0 14 7 26 14 NE 1014,2 60 60 0,0
17.07.2019 15:00:00 21,2 12,3 26,7 30,8 22,5 19,0 13 7 30 16 NE 1014,0 75 60 0,0
17.07.2019 14:00:00 21,7 10,5 27,0 28,7 21,4 19,0 16 9 32 17 N 1014,1 65 60 0,0
17.07.2019 13:00:00 21,3 10,1 26,5 25,7 20,5 19,0 18 10 32 17 N 1014,1 57 41 0,0
17.07.2019 12:00:00 20,4 11,5 23,8 24,0 19,7 19,0 14 7 26 14 NNW 1014,0 55 38 0,0
17.07.2019 11:00:00 19,5 11,7 23,4 21,7 19,1 19,0 13 7 26 14 NW 1014,1 55 32 0,0
17.07.2019 10:00:00 18,7 12,4 22,9 20,5 18,6 19,0 9 5 20 11 WNW 1014,0 50 47 0,0
17.07.2019 09:00:00 17,4 13,1 21,2 18,4 18,3 19,0 11 6 22 12 NW 1014,1 45 41 0,0
17.07.2019 08:00:00 16,1 13,5 18,7 16,8 18,2 19,0 10 5 16 9 W 1013,9 30 60 0,0
17.07.2019 07:00:00 14,0 13,0 14,2 15,8 18,4 19,0 8 5 18 10 W 1013,9 13 29 0,0
17.07.2019 06:00:00 13,6 13,0 12,8 15,7 18,6 19,0 12 6 17 9 W 1013,8 9 12 0,0
17.07.2019 05:00:00 13,5 12,9 12,7 15,8 18,9 19,1 7 4 18 10 W 1013,6 8 0 0,0
17.07.2019 04:00:00 13,4 12,7 12,1 16,1 19,2 19,1 9 5 16 9 W 1013,5 12 0 0,0
17.07.2019 03:00:00 13,7 12,9 12,3 16,4 19,6 19,1 11 6 16 9 W 1013,6 15 0 0,0
17.07.2019 02:00:00 14,0 13,1 12,6 16,8 19,9 19,1 11 6 17 9 W 1013,6 15 0 0,0
17.07.2019 01:00:00 13,8 12,7 12,4 17,3 20,3 19,1 11 6 16 9 W 1013,6 20 0 0,0
17.07.2019 00:00:00 14,0 12,1 12,1 18,1 20,7 19,1 9 5 17 9 W 1013,5 30 0 0,0
16.07.2019 23:00:00 15,3 12,2 13,4 18,9 21,1 19,1 11 6 18 10 W 1013,4 40 0 0,0
16.07.2019 22:00:00 16,4 12,3 14,8 19,9 21,4 19,1 11 6 20 11 W 1013,2 40 0 0,0
16.07.2019 21:00:00 17,5 12,3 16,6 21,1 21,6 19,1 16 8 31 17 WNW 1013,0 45 21 0,0
16.07.2019 20:00:00 17,9 12,1 18,1 21,9 21,6 19,1 20 11 34 19 WNW 1012,9 50 10 0,0
16.07.2019 19:00:00 18,3 11,9 18,8 22,2 21,5 19,1 19 11 36 20 WNW 1012,7 50 2 0,0
16.07.2019 18:00:00 18,5 11,1 19,8 22,5 21,4 19,1 18 10 36 19 WNW 1012,6 55 2 0,0
16.07.2019 17:00:00 18,3 10,8 19,6 22,5 21,1 19,1 16 9 31 17 NW 1012,7 60 0 0,0
16.07.2019 16:00:00 17,7 11,2 19,9 22,1 20,9 19,1 17 9 37 20 NW 1012,7 60 0 0,0
16.07.2019 15:00:00 17,1 10,5 18,8 21,9 20,5 19,1 20 11 39 21 WNW 1012,6 55 5 0,0
16.07.2019 14:00:00 17,8 11,1 19,9 21,1 20,3 19,1 21 11 33 18 NW 1012,4 65 1 0,0
16.07.2019 13:00:00 16,3 12,0 17,6 19,8 20,2 19,1 13 7 24 13 WSW 1012,7 40 0 0,0
16.07.2019 12:00:00 15,5 12,2 16,3 19,3 20,2 19,1 15 8 27 15 W 1012,7 45 0 0,1
16.07.2019 11:00:00 15,4 12,9 15,7 19,4 20,2 19,1 20 11 33 18 W 1012,5 6 0 0,0
16.07.2019 10:00:00 16,1 12,6 17,3 19,6 20,1 19,1 13 7 29 16 WNW 1012,3 18 0 0,0
16.07.2019 09:00:00 16,5 12,2 17,7 19,4 20,1 19,1 17 9 29 15 WNW 1012,1 40 4 0,0
16.07.2019 08:00:00 15,9 12,3 16,1 18,6 20,2 19,1 18 10 34 18 W 1012,0 35 1 0,0
16.07.2019 07:00:00 15,6 12,5 16,0 18,3 20,3 19,1 19 10 29 16 W 1012,0 30 9 0,0
16.07.2019 06:00:00 15,4 12,8 15,6 18,3 20,5 19,1 15 8 24 13 W 1011,9 25 4 0,0
16.07.2019 05:00:00 15,0 12,5 15,0 18,4 20,7 19,1 18 10 32 17 W 1011,8 23 0 0,0
16.07.2019 04:00:00 14,9 11,4 14,9 18,6 20,9 19,1 16 9 29 16 W 1012,1 32 0 0,0
16.07.2019 03:00:00 15,0 10,9 15,0 18,8 21,2 19,1 15 8 23 12 WSW 1012,3 35 0 0,0
16.07.2019 02:00:00 15,1 10,6 14,9 19,1 21,5 19,1 14 8 29 15 WSW 1012,4 42 0 0,0
16.07.2019 01:00:00 15,2 10,0 15,1 19,5 21,8 19,1 16 9 27 15 WSW 1012,6 40 0 0,0
16.07.2019 00:00:00 15,4 9,4 15,4 20,0 22,1 19,1 16 9 26 14 WSW 1012,8 40 0 0,0
15.07.2019 23:00:00 15,7 8,8 15,6 20,5 22,5 19,1 11 6 23 12 WSW 1013,4 40 0 0,0
15.07.2019 22:00:00 16,0 8,8 15,9 21,2 22,8 19,1 11 6 25 14 W 1013,5 42 0 0,0
15.07.2019 21:00:00 16,4 8,6 16,4 22,1 23,1 19,1 18 10 37 20 W 1013,6 53 0 0,0
15.07.2019 20:00:00 17,3 8,5 17,8 23,2 23,3 19,1 17 9 32 18 W 1013,5 50 0 0,0
15.07.2019 19:00:00 17,7 8,9 18,7 24,2 23,3 19,1 18 10 32 17 W 1013,7 50 1 0,0
15.07.2019 18:00:00 18,1 8,8 19,6 25,2 23,1 19,1 16 9 31 17 W 1013,9 50 4 0,0
15.07.2019 17:00:00 18,6 8,8 21,2 25,6 22,6 19,1 16 9 31 17 WSW 1014,2 55 21 0,0
15.07.2019 16:00:00 18,0 8,3 21,7 24,9 22,1 19,1 13 7 34 19 W 1014,6 50 8 0,0
15.07.2019 15:00:00 17,2 8,4 20,2 23,7 21,8 19,1 16 9 30 16 WSW 1015,1 50 2 0,0
15.07.2019 14:00:00 16,5 8,5 19,8 22,9 21,4 19,1 17 9 27 15 W 1015,3 50 0 0,0
15.07.2019 13:00:00 16,5 9,3 19,5 21,9 21,2 19,1 17 9 29 16 W 1015,4 60 0 0,0
15.07.2019 12:00:00 15,8 10,4 17,7 21,1 21,0 19,1 15 8 22 12 W 1015,7 45 0 0,0
15.07.2019 11:00:00 15,2 11,2 17,7 20,1 21,0 19,0 15 8 26 14 W 1015,8 35 0 0,0
15.07.2019 10:00:00 14,4 11,5 15,2 19,9 21,0 19,0 13 7 26 14 W 1015,7 30 0 0,0
15.07.2019 09:00:00 14,8 11,1 16,2 19,7 21,1 19,0 14 8 23 13 W 1015,7 50 0 0,0
15.07.2019 08:00:00 15,0 11,8 16,5 19,3 21,2 19,0 10 6 21 11 W 1015,7 40 0 0,0
15.07.2019 07:00:00 14,5 11,8 15,2 19,1 21,4 19,0 11 6 18 10 WSW 1015,7 40 0 0,0
15.07.2019 06:00:00 14,5 11,6 14,8 19,2 21,7 19,0 13 7 19 10 W 1016,0 48 0 0,0
15.07.2019 05:00:00 15,0 11,6 15,0 19,6 22,0 19,0 8 5 16 9 WSW 1016,0 42 0 0,0
15.07.2019 04:00:00 15,3 11,5 15,3 19,9 22,3 19,0 8 5 16 9 WSW 1016,3 43 0 0,0
15.07.2019 03:00:00 15,6 11,5 15,6 20,3 22,6 19,0 9 5 17 9 WSW 1016,6 45 0 0,0
15.07.2019 02:00:00 15,8 11,3 15,9 20,7 22,9 19,0 6 3 12 7 SW 1016,7 59 0 0,0
15.07.2019 01:00:00 16,0 11,2 16,1 21,1 23,2 19,0 7 4 12 6 SW 1016,8 55 0 0,0
15.07.2019 00:00:00 16,0 11,2 16,2 21,6 23,6 19,0 5 3 13 7 WSW 1017,1 51 0 0,0
14.07.2019 23:00:00 16,0 11,2 16,1 22,2 24,0 19,0 9 5 18 10 W 1017,0 66 0 0,0
14.07.2019 22:00:00 16,2 11,1 16,4 23,0 24,4 18,9 14 8 25 14 W 1017,0 52 0 0,0
14.07.2019 21:00:00 16,4 11,5 16,7 24,4 24,7 18,9 11 6 24 13 WNW 1016,7 59 22 0,0
14.07.2019 20:00:00 17,7 11,7 18,5 26,2 24,6 18,9 17 9 29 16 WNW 1016,5 65 60 0,0
14.07.2019 19:00:00 19,8 12,4 21,7 26,8 24,4 18,9 20 11 29 16 WNW 1016,1 53 42 0,0
14.07.2019 18:00:00 20,3 13,3 23,5 26,0 24,2 18,9 14 7 29 16 N 1016,1 55 14 0,0
14.07.2019 17:00:00 20,2 13,5 23,0 26,0 24,0 18,9 16 9 26 14 N 1016,3 50 4 0,0
14.07.2019 16:00:00 19,5 13,4 21,7 26,2 23,6 18,9 13 7 27 15 N 1016,4 50 1 0,0
14.07.2019 15:00:00 19,8 13,6 22,8 26,5 23,1 18,9 10 6 25 14 NNW 1016,5 55 19 0,0
14.07.2019 14:00:00 19,2 13,6 22,0 24,2 22,8 18,9 13 7 22 12 N 1016,6 40 0 0,0
14.07.2019 13:00:00 18,5 13,5 20,7 23,3 22,5 18,8 11 6 18 10 NNW 1016,6 38 0 0,0
14.07.2019 12:00:00 18,3 13,8 20,8 22,8 22,3 18,8 11 6 19 10 NNW 1016,5 38 0 0,0
14.07.2019 11:00:00 17,6 13,7 20,1 22,0 22,2 18,8 13 7 23 12 NNW 1016,4 30 0 0,0
14.07.2019 10:00:00 17,0 13,8 18,9 21,3 22,2 18,8 13 7 24 13 WNW 1016,2 26 0 0,0
14.07.2019 09:00:00 16,2 13,6 17,2 20,6 22,3 18,8 16 8 28 15 NW 1016,0 25 0 0,0
14.07.2019 08:00:00 16,1 13,6 16,7 20,4 22,5 18,8 16 9 30 16 NW 1015,5 26 0 0,0
14.07.2019 07:00:00 16,1 13,8 16,4 20,1 22,8 18,8 16 8 26 14 WNW 1015,2 30 0 0,0
14.07.2019 06:00:00 15,6 14,2 15,8 20,0 23,2 18,8 10 5 17 9 WNW 1015,0 23 0 0,0
14.07.2019 05:00:00 15,2 13,9 14,5 20,3 23,7 18,7 12 6 19 11 WNW 1014,6 24 0 0,0
14.07.2019 04:00:00 15,2 13,9 14,1 20,8 24,2 18,7 12 6 21 11 WNW 1014,4 26 0 0,0
14.07.2019 03:00:00 15,8 14,2 14,9 21,5 24,8 18,7 11 6 18 10 W 1014,4 34 0 0,0
14.07.2019 02:00:00 16,4 14,4 15,5 22,4 25,4 18,7 11 6 20 11 W 1014,3 33 0 0,0
14.07.2019 01:00:00 16,8 14,3 15,8 23,3 26,0 18,7 10 6 20 11 W 1014,2 30 0 0,0
14.07.2019 00:00:00 17,7 12,8 17,2 24,3 26,6 18,7 9 5 15 8 W 1014,2 55 0 0,0
13.07.2019 23:00:00 16,4 13,4 14,9 25,4 27,3 18,7 4 2 6 3 W 1014,2 60 0 0,0
13.07.2019 22:00:00 17,0 14,4 16,3 27,2 27,9 18,7 2 1 5 3 WSW 1014,1 56 3 0,0
13.07.2019 21:00:00 19,3 14,5 18,2 29,3 28,4 18,7 3 2 9 5 NNE 1013,7 55 60 0,0

tt = Température de l'air
td = dewpoint
tt 5cm = Température de l'air 5cm
tt -5cm = Température de l'air -5cm
tt -20cm = Température de l'air -20cm
tt -100cm = Température de l'air -100cm
ff = Vitesse du vent
fx = gusts
dd = Direction du vent
ppp = reduced air pressure
vv = visibility
sd = Ensoleillement
rr = Quantités de précipitations

stations d'obs. à proximité